Weather History for KPWM - June, 2014

Change the Weather History Date:

Saturday, June 7, 2014

  Actual Average Record
Temperature  
Mean Temperature 69 °F 61 °F  
Max Temperature 83 °F 71 °F 95 °F (1999)
Min Temperature 55 °F 51 °F 35 °F (1958)
Degree Days  
Heating Degree Days 0 5  
Month to date heating degree days 39 41  
Since 1 June heating degree days 39 41  
Since 1 July heating degree days 7400 7042  
Cooling Degree Days 4 1  
Month to date cooling degree days 4 7  
Year to date cooling degree days 4 14  
Since 1 June cooling degree days 4 7  
Growing Degree Days 18 (Base 50)    
Moisture  
Dew Point 54 °F    
Average Humidity 60    
Maximum Humidity 86    
Minimum Humidity 34    
Precipitation  
Precipitation 0.00 in 0.14 in 1.83 in (2006)
Month to date precipitation 0.29 0.98  
Year to date precipitation 19.51 20.18  
Snow  
Snow 0.00 in 0.00 in 0.00 in (2002)
Month to date snowfall 0.0 0.0  
Since 1 June snowfall 0.0 0.0  
Since 1 July snowfall 83.4 61.9  
Snow Depth 0.00 in    
Sea Level Pressure  
Sea Level Pressure 29.87 in    
Wind  
Wind Speed 9 mph (WNW)    
Max Wind Speed 18 mph    
Max Gust Speed 25 mph    
Visibility 10 miles    
Events      
T = Trace of Precipitation, MM = Missing Value Source: NWS Daily Summary

Daily Weather History Graph

Daily Weather History Graph

Search for Another Location

Airport or City:

Trip Planner

Search our weather history database for the weather conditions in past years. The results will help you decide how hot, cold, wet, or windy it might be!

Date:

Astronomy

Jun. 07, 2014 Rise Set
Actual Time 5:00 AM EDT 8:20 PM EDT
Civil Twilight 4:24 AM EDT 8:55 PM EDT
Nautical Twilight 3:38 AM EDT 9:42 PM EDT
Astronomical Twilight 2:41 AM EDT 10:39 PM EDT
Moon 2:24 PM EDT (6/7) 1:31 AM EDT (6/7)
Length of Visible Light 16h 31m
Length of Day
15h 20m
Waxing Gibbous, 67% of the Moon is Illuminated
Jun 7
Waxing Gibbous
Jun 13
Full
Jun 19
Last Quarter
Jun 27
New
Jul 5
First Quarter

Hourly Weather History & Observations

Time (EDT) Temp. Heat Index Dew Point Humidity Pressure Visibility Wind Dir Wind Speed Gust Speed Precip Events Conditions
12:51 AM 59.0 °F - 52.0 °F 78% 29.83 in 10.0 mi West 5.8 mph - N/A   Mostly Cloudy
1:51 AM 57.0 °F - 51.1 °F 81% 29.84 in 10.0 mi West 4.6 mph - N/A   Scattered Clouds
2:51 AM 57.0 °F - 52.0 °F 83% 29.85 in 10.0 mi West 5.8 mph - N/A   Clear
3:51 AM 55.9 °F - 52.0 °F 87% 29.85 in 10.0 mi WNW 8.1 mph - N/A   Clear
4:51 AM 55.9 °F - 52.0 °F 87% 29.86 in 10.0 mi West 8.1 mph - N/A   Partly Cloudy
5:51 AM 55.9 °F - 52.0 °F 87% 29.87 in 10.0 mi West 8.1 mph - N/A   Clear
6:51 AM 62.1 °F - 54.0 °F 75% 29.87 in 10.0 mi West 6.9 mph - N/A   Clear
7:51 AM 66.2 °F - 55.4 °F 68% 29.88 in 10.0 mi NW 10.4 mph - N/A   Partly Cloudy
8:51 AM 71.6 °F - 55.4 °F 57% 29.88 in 10.0 mi NW 11.5 mph - N/A   Clear
9:51 AM 73.4 °F - 55.4 °F 53% 29.89 in 10.0 mi NW 17.3 mph 23.0 mph N/A   Clear
10:51 AM 75.9 °F - 55.9 °F 50% 29.89 in 10.0 mi NW 10.4 mph 23.0 mph N/A   Partly Cloudy
11:51 AM 78.1 °F - 55.9 °F 46% 29.89 in 10.0 mi NW 13.8 mph 21.9 mph N/A   Partly Cloudy
12:51 PM 80.1 °F 80.4 °F 57.0 °F 45% 29.88 in 10.0 mi WNW 13.8 mph 19.6 mph N/A   Scattered Clouds
1:51 PM 81.0 °F 80.8 °F 55.9 °F 42% 29.87 in 10.0 mi WNW 13.8 mph 23.0 mph N/A   Scattered Clouds
2:51 PM 81.0 °F 80.7 °F 55.0 °F 41% 29.87 in 10.0 mi NW 12.7 mph - N/A   Mostly Cloudy
3:51 PM 82.9 °F 81.8 °F 53.1 °F 36% 29.85 in 10.0 mi NW 12.7 mph 20.7 mph N/A   Mostly Cloudy
4:51 PM 82.0 °F - 52.0 °F 35% 29.84 in 10.0 mi NW 15.0 mph - N/A   Scattered Clouds
5:51 PM 80.6 °F - 51.8 °F 37% 29.84 in 10.0 mi NW 11.5 mph - N/A   Partly Cloudy
6:51 PM 80.1 °F 79.9 °F 53.1 °F 39% 29.84 in 10.0 mi NW 10.4 mph - N/A   Partly Cloudy
7:51 PM 75.9 °F - 54.0 °F 46% 29.85 in 10.0 mi NW 6.9 mph - N/A   Partly Cloudy
8:51 PM 73.9 °F - 53.1 °F 48% 29.87 in 10.0 mi WNW 5.8 mph - N/A   Partly Cloudy
9:51 PM 66.9 °F - 57.0 °F 70% 29.88 in 10.0 mi Calm Calm - N/A   Partly Cloudy
10:51 PM 66.0 °F - 55.9 °F 70% 29.90 in 10.0 mi Calm Calm - N/A   Scattered Clouds
11:51 PM 66.0 °F - 55.9 °F 70% 29.91 in 10.0 mi West 8.1 mph - N/A   Mostly Cloudy